Location: ???? ????
(31.2831°N, 45.5190°E)
Time: 04:37:02
(UTC+00:00)

Gbstr 26 Del rocket - Pass Details

Date: 24 February 2021
Orbit: 492 x 1264 km, 51.8° (Epoch: 14 April)

Event Time Altitude Azimuth Distance (km) Brightness Sun altitude
Rises 15:11:18 0° 236° (SW) 2,622 7.6 -4.8°
Reaches altitude 10° 15:13:23 10° 241° (WSW) 1,791 6.8 -5.3°
Maximum altitude 15:17:18 53° 319° (NW) 734 3.7 -6.1°
Drops below altitude 10° 15:22:00 10° 36° (NE) 2,133 5.4 -7.1°
Enters shadow 15:24:37 - 41° (NE) 3,160 6.2 -7.6°
